Voltar ao catálogo

SL-8 R/B

AtivoPO
NORAD 11321·ROCKET BODY·🇷🇺 Russia

Lançado Apr 7, 1979 de Plesetsk Cosmodrome

Loading…

Próximas Passagens (próximas 24 horas)

TLE

AtualizadoSource: Space-Track

Época: Sep 14, 2026, 06:56 UTC

1 11321U 79028B   26257.28927877  .00000096  00000-0  82166-4 0  9998
2 11321  82.9249  27.8847 0019660 145.2819 234.0042 13.76824515382248

Acompanhe SL-8 R/B em tempo real com AllMySat

Download on the App Store